Other Public Products
Issued by NWS Charleston, SC

Current Version | Previous Version | Graphics & Text | Print | Product List | Glossary On
Versions: 1 2 3 4 5 6 7 8 9 10 11 12 13 14 15 16 17 18 19 20 21 22 23 24 25 26 27 28 29 30 31 32 33 34 35 36 37 38 39 40 41 42 43 44 45 46 47 48 49 50
000 FPUS82 KCHS 200712 OPUCHS TEST...KCHS/KSAV Gateway Observations...TEST National Weather Service Charleston SC 200 AM EST MON NOV 20 2017 NOTE: "fair" indicates few or no clouds below 12,000 feet with no significant weather and/or obstructions to visibility. SCZ050-WAZ558-NCZ071-TXZ119-213-PAZ071-DCZ001-FLZ074-172-MI076- NYZ176-178-MAZ016-IL014-TNZ027-NJZ106-GAZ044-MD014-200800- ...Gateway Observations for Charleston International... CITY SKY/WX TMP DP RH WIND PRES REMARKS Chas Airport CLEAR 44 33 65 NE8 30.13R Seattle LGT RAIN 44 42 93 E6 29.61F FOG Charlotte CLEAR 32 29 88 W6 30.12R WCI 26 Dallas DFW CLOUDY 42 34 73 S8 30.20S Dallas Love CLOUDY 46 31 55 CALM 30.22S Philladelphia PTCLDY 40 25 55 W17 29.95R WCI 31 Wash National CLOUDY 43 27 53 NW6 30.04R Baltimore MOCLDY 40 23 50 W15G22 30.01R WCI 32 Miami PTCLDY 72 68 87 CALM 29.98S Detroit CLOUDY 30 23 75 SW10 30.02S WCI 21 Newark FLURRIES 37 29 72 W16 29.86R WCI 28 Laguardia CLOUDY 42 26 53 W15 29.84R J F K CLOUDY 40 28 62 W23 29.86R WCI 30 Boston Logan CLEAR 37 25 61 W13 29.70R WCI 29 Ft. Lauderdale CLEAR 70 69 97 N7 29.97S Chicago O`Hare CLOUDY 32 21 64 SW12 30.02F WCI 23 Chicago Midway PTCLDY 32 23 69 SW12 30.04F WCI 23 Houston Bush CLOUDY 46 40 79 CALM 30.22F Houston Hobby CLOUDY 49 41 74 CALM 30.22S Nashville CLEAR 30 26 85 S3 30.26S Atlanta CLEAR 36 28 73 NW9 30.16S WCI 29 $$ GAZ044-118-TXZ119-213-NCZ071-DCZ001-MDZ014-506-PAZ021-071-NJZ106- NYZ176-178-MAZ106-OHZ011-021-055-MIZ076-KYZ091-ILZ014-INZ047- MNZ060-ONZ431-200800- ...Gateway Observations for Savannah International... CITY SKY/WX TMP DP RH WIND PRES REMARKS Savannah Arpt CLEAR 40 34 79 N6 30.14S WCI 36 Atlanta CLEAR 36 28 73 NW9 30.16S WCI 29 Charlotte CLEAR 32 29 88 W6 30.12R WCI 26 Dallas DFW CLOUDY 42 34 73 S8 30.20S Houston Bush CLOUDY 46 40 79 CALM 30.22F Wash National CLOUDY 43 27 53 NW6 30.04R Wash Dulles MOCLDY 41 22 46 W15G28 30.03R Baltimore MOCLDY 40 23 50 W15G22 30.01R WCI 32 Philadelphia PTCLDY 40 25 55 W17 29.95R WCI 31 Newark FLURRIES 37 29 72 W16 29.86R WCI 28 Laguardia CLOUDY 42 26 53 W15 29.84R J F K CLOUDY 40 28 62 W23 29.86R WCI 30 Boston CLEAR 37 25 61 W13 29.70R WCI 29 Pittsburg CLOUDY 31 20 63 W15 30.04R WCI 20 Akron CLOUDY 31 21 66 W10 30.05S WCI 22 Cleveland CLOUDY 32 25 75 W13 30.08R WCI 22 Cincinnati PTCLDY 28 23 81 W5 30.17S WCI 23 Columbus CLEAR 26 24 90 SW7 30.15S WCI 19 Detroit CLOUDY 30 23 75 SW10 30.02S WCI 21 Chicago O`Hare CLOUDY 32 21 64 SW12 30.02F WCI 23 Minneapolis MOCLDY 35 27 72 S5 29.78F WCI 31 Indianapolis CLEAR 25 20 81 SW6 30.17S WCI 18 Toronto Canada CLOUDY 30 23 74 W16 29.87R WCI 19 $$

USA.gov is the U.S. government's official web portal to all federal, state and local government web resources and services.